WetterOnline ( https://www.wetteronline.de )

Wetter aktuell Pic du Midi de Bigorre

Aktuelles Wetter: Tarbes/Ossun (364m)

6-stündlich | Neueste Meldungen
Ortszeit Temperatur Wetter
Mi, 19.06. 14:00 18.9° C bedeckt
Mi, 19.06. 8:00 17.2° C bedeckt
Mi, 19.06. 2:00 17.5° C bedeckt
Di, 18.06. 20:00 18.1° C leichter Regen
Di, 18.06. 14:00 24.1° C bewölkt
Di, 18.06. 8:00 17.4° C bewölkt
Di, 18.06. 2:00 17.5° C -
Mo, 17.06. 20:00 25.9° C -
Ortszeit Temperatur Wetter
Mi, 19.06. 15:00 18.3° C bedeckt
Mi, 19.06. 14:00 18.9° C bedeckt
Mi, 19.06. 13:00 18.3° C bedeckt
Mi, 19.06. 12:00 18.7° C bedeckt
Mi, 19.06. 11:00 18.3° C bedeckt
Mi, 19.06. 10:00 18.2° C bedeckt
Mi, 19.06. 9:00 17.3° C -
Ortszeit Relative Feuchte Sichtweite
Mi, 19.06. 14:00 81% 22 km
Mi, 19.06. 8:00 94% 18 km
Mi, 19.06. 2:00 96% 9 km
Di, 18.06. 20:00 90% 11 km
Di, 18.06. 14:00 64% 55 km
Di, 18.06. 8:00 85% 2.9 km
Di, 18.06. 2:00 95% 5.0 km
Mo, 17.06. 20:00 57% 29 km
Ortszeit Relative Feuchte Sichtweite
Mi, 19.06. 15:00 84% 10 km
Mi, 19.06. 14:00 81% 22 km
Mi, 19.06. 13:00 84% 13 km
Mi, 19.06. 12:00 84% 45 km
Mi, 19.06. 11:00 80% 45 km
Mi, 19.06. 10:00 83% 45 km
Mi, 19.06. 9:00 91% 22 km
Ortszeit Niederschlagsmenge Niederschlagsart
Mi, 19.06. 14:00 0.0 l/m2 in 6 Std. -
Mi, 19.06. 8:00 4 l/m2 in 12 Std. -
Mi, 19.06. 2:00 3 l/m2 in 6 Std. -
Di, 18.06. 20:00 1 l/m2 in 12 Std. -
Di, 18.06. 14:00 0.0 l/m2 in 6 Std. -
Di, 18.06. 8:00 0.0 l/m2 in 12 Std. -
Di, 18.06. 2:00 0.0 l/m2 in 6 Std. -
Mo, 17.06. 20:00 0.0 l/m2 in 12 Std. -
Ortszeit Niederschlagsmenge Niederschlagsart
Mi, 19.06. 15:00 0.0 l/m2 in 1 Std. -
Mi, 19.06. 14:00 keine Meldung -
Mi, 19.06. 13:00 0.0 l/m2 in 1 Std. -
Mi, 19.06. 12:00 0.0 l/m2 in 1 Std. -
Mi, 19.06. 11:00 keine Meldung -
Mi, 19.06. 10:00 0.0 l/m2 in 1 Std. -
Mi, 19.06. 9:00 0.0 l/m2 in 1 Std. -
Ortszeit Stärke Spitze Richtung
km/h Bft. km/h Grad Sektor
Mi, 19.06. 14:00 11 2 20 310° NW
Mi, 19.06. 8:00 6 1 17 300° NW
Mi, 19.06. 2:00 13 3 31 280° W
Di, 18.06. 20:00 20 4 70 290° W
Di, 18.06. 14:00 7 2 24 30° NO
Di, 18.06. 8:00 9 2 17 280° W
Di, 18.06. 2:00 4 1 7 270° W
Mo, 17.06. 20:00 13 3 26 60° NO
Ortszeit Stärke Spitze Richtung
km/h Bft. km/h Grad Sektor
Mi, 19.06. 15:00 11 2 28 230° SW
Mi, 19.06. 14:00 11 2 20 310° NW
Mi, 19.06. 13:00 9 2 20 310° NW
Mi, 19.06. 12:00 9 2 19 340° N
Mi, 19.06. 11:00 13 3 22 310° NW
Mi, 19.06. 10:00 9 2 19 290° W
Mi, 19.06. 9:00 9 2 15 270° W
Ortszeit Untergrenze Bedeckung Gattung
total tief tief mittel hoch
Mi, 19.06. 14:00 - 8/8 - - - -
Mi, 19.06. 8:00 - 8/8 - - - -
Mi, 19.06. 2:00 - 8/8 - - - -
Di, 18.06. 20:00 - 8/8 - - - -
Di, 18.06. 14:00 - 7/8 - - - -
Di, 18.06. 8:00 - 7/8 - - - -
Di, 18.06. 2:00 - - - - - -
Mo, 17.06. 20:00 - - - - - -
Ortszeit Bedeckungsgrad in Achtel und Wolkenuntergrenze
Mi, 19.06. 15:00 8
Mi, 19.06. 14:00 8
Mi, 19.06. 13:00 8
Mi, 19.06. 12:00 8
Mi, 19.06. 11:00 8
Mi, 19.06. 10:00 8
Mi, 19.06. 9:00 -
Ortszeit Luftdruck NN (hPa) Tendenz (hPa in 3 Std.)
Mi, 19.06. 14:00 1015 + 0,9
Mi, 19.06. 8:00 1013 + 0,6
Mi, 19.06. 2:00 1012 + 0,5
Di, 18.06. 20:00 1012 + 1,7
Di, 18.06. 14:00 1010 - 0,9
Di, 18.06. 8:00 1012 + 1,0
Di, 18.06. 2:00 1008 - 1,0
Mo, 17.06. 20:00 1008 - 0,7
Ortszeit Luftdruck NN (hPa) Tendenz (hPa in 3 Std.)
Mi, 19.06. 15:00 1015 + 1,0
Mi, 19.06. 14:00 1015 + 0,9
Mi, 19.06. 13:00 1015 + 1,1
Mi, 19.06. 12:00 1014 + 0,9
Mi, 19.06. 11:00 1014 + 1,3
Mi, 19.06. 10:00 1014 + 1,1
Mi, 19.06. 9:00 1014 + 1,2
Ortszeit Schneehöhe (cm)
Mi, 19.06. 14:00 0
Mi, 19.06. 8:00 0
Mi, 19.06. 2:00 0
Di, 18.06. 20:00 0
Di, 18.06. 14:00 0
Di, 18.06. 8:00 0
Di, 18.06. 2:00 0
Mo, 17.06. 20:00 0
Ortszeit Schneehöhe (cm)
Mi, 19.06. 15:00 -
Mi, 19.06. 14:00 0
Mi, 19.06. 13:00 -
Mi, 19.06. 12:00 -
Mi, 19.06. 11:00 0
Mi, 19.06. 10:00 -
Mi, 19.06. 9:00 -
Link zu dieser Seite / Seite empfehlen

Das Wetter in ...